STARLINK-31086, 58626

Orbit data source: Space-Track

STARLINK-31086, 58626 is a payload satellite owned by SpaceX/Seattle (US) in LEO that was launched on Sat, 23 Dec 2023 UTC via an FALCON 9 launch vehicle from the Air Force Eastern Test Range (AFETR). Payload-class satellites include a variety of spacecraft equipped with specific instruments for various scientific and technological missions. These include communications satellites like Starlink; space stations such as the ISS; scientific satellites like the Hubble; Earth observation satellites from companies like Planet Labs, Umbra, and HawkEye 360; GPS; miniature CubeSats for education and research; and military/defense satellites.

Loading next visibility...
Identifier
58626, 2023-203J
Orbit
LEO
Country
Flag of USUS
Related business
Manufacturer
SpaceX/Seattle
Mission
Operational Commercial Communications
Bus & Motor
STARLINK V2M, Unknown motor
Mass
730 kg wet, ~700 kg dry
Launch date (UTC)
2023-12-23 (2 years ago)
Launch vehicle
FALCON 9
Launch site
Air Force Eastern Test Range (AFETR)
Object type
Payload
Rocket body
Debris
Shape & HBR
Box + 2 Pan, 17.7 m
Radar Cross Section
33.884 m², Large (>1 m²)

Expand to show TLE details & history
Last TLE update: 2 days ago

TLE from 2 days ago
0 STARLINK-31086
1 58626U 23203J   26171.39762407  .00000237  00000-0  18143-4 0  9995
2 58626  43.0006 206.6757 0001278 274.5003  85.5703 15.27577280139278
Epoch: 2026-06-20T09:32Z
TLE epoch observation values (Epoch: 2026-06-20T09:32:34.719Z)
Latitude
-0°
Longitude
154.91821°
Altitude
482.765 km
Speed
7.626 km/s
True Right ascension
13h 46m 42s
True Declination
0° 00' 00"
Sunlit
Object was in full shadow at epoch
Visualization orbit readout
Latitude
Unknown
Longitude
Unknown
Altitude
Unknown
Speed
Unknown
Apparent Right ascension
Unknown
Apparent Declination
Unknown
Sunlit
N/A
Visualization observer readout
Local Sidereal Time
21:27:43
Azimuth
Unknown
Elevation
Unknown
Doppler factor
Unknown
Orbital elements
Apogee altitude
485.879 km
Perigee altitude
484.125 km
Semi-major axis
6,863.139 km
Eccentricity
0.00013
Inclination
43.0006°
RAAN
206.6757°
Arg. of periapsis
274.5003°
True anomaly
85.5849°
Mean anomaly
85.5703°
Eccentric anomaly
85.5776°
Mean motion
3.81732 °/min
Orbital period
94.31 mins
BSTAR
0.000018143
Loading maneuver chart data...
Computing Atmospheric mass density...
Loading historical data...
Loading historical data...
Loading historical data...
Loading historical data...
Loading historical data...
Loading historical data...
Loading historical data...

Documentation

Showing up to 5 results
|